LA1HSA-13 Weather Reports


Display with metric or nautical units.
time (UTC)temp
F
wind
direction
speed
MPH
gust
MPH
rain 1hr
in
rain 24hr
in
rain mn
in
humidity
%
barometer
mb
20260508065003 44 246 1.0 4.0 0.00 0.00 0.00 67 1022.8
20260508064003 44 245 2.0 4.0 0.00 0.00 0.00 69 1022.8
20260508063003 42 238 2.0 4.0 0.00 0.00 0.00 73 1022.7
20260508062003 41 240 1.0 2.0 0.00 0.00 0.00 75 1022.6
20260508061003 40 240 1.0 4.0 0.00 0.00 0.00 77 1022.3
20260508060003 40 0 0.0 2.0 0.00 0.00 0.00 76 1022.4
20260508055003 39 256 2.0 2.0 0.00 0.00 0.00 78 1022.3
20260508054003 38 22 1.0 2.0 0.00 0.00 0.00 73 1022.3
20260508053003 37 333 1.0 2.0 0.00 0.00 0.00 74 1022.2
20260508052003 37 0 0.0 0.0 0.00 0.00 0.00 76 1022.2
20260508051003 37 0 0.0 0.0 0.00 0.00 0.00 75 1022.2
20260508050003 36 0 0.0 2.0 0.00 0.00 0.00 75 1022.1
20260508045003 36 0 0.0 2.0 0.00 0.00 0.00 74 1021.8
20260508044003 36 0 0.0 2.0 0.00 0.00 0.00 73 1021.6
20260508043003 36 300 1.0 2.0 0.00 0.00 0.00 74 1021.8
20260508042003 35 0 0.0 0.0 0.00 0.00 0.00 75 1021.6
20260508041003 34 0 0.0 0.0 0.00 0.00 0.00 76 1021.6
20260508040003 33 0 0.0 0.0 0.00 0.00 0.00 76 1021.7
20260508035003 33 0 0.0 0.0 0.00 0.00 0.00 78 1021.7
20260508034003 32 0 0.0 0.0 0.00 0.00 0.00 79 1021.5
20260508033003 32 0 0.0 0.0 0.00 0.00 0.00 80 1021.5
20260508032003 32 0 0.0 0.0 0.00 0.00 0.00 81 1021.4
20260508031003 31 0 0.0 0.0 0.00 0.00 0.00 82 1021.3
20260508030004 31 0 0.0 0.0 0.00 0.00 0.00 82 1021.3
20260508025003 31 0 0.0 0.0 0.00 0.00 0.00 82 1021.1
20260508024003 31 0 0.0 0.0 0.00 0.00 0.00 83 1021.2
20260508023003 30 0 0.0 0.0 0.00 0.00 0.00 84 1021.1
20260508022003 30 0 0.0 0.0 0.00 0.00 0.00 83 1020.9
20260508021003 30 0 0.0 0.0 0.00 0.00 0.00 82 1021.0
20260508020004 30 0 0.0 0.0 0.00 0.00 0.00 82 1021.0
20260508015003 31 0 0.0 0.0 0.00 0.00 0.00 81 1020.9
20260508014003 31 0 0.0 0.0 0.00 0.00 0.00 80 1020.9
20260508013003 32 0 0.0 0.0 0.00 0.00 0.00 78 1020.8
20260508012003 31 0 0.0 0.0 0.00 0.00 0.00 79 1020.8
20260508011003 32 0 0.0 0.0 0.00 0.00 0.00 78 1020.8
20260508010003 31 0 0.0 0.0 0.00 0.00 0.00 79 1020.7
20260508005003 32 0 0.0 0.0 0.00 0.00 0.00 78 1020.6
20260508004003 32 0 0.0 0.0 0.00 0.00 0.00 78 1020.4
20260508003003 33 0 0.0 0.0 0.00 0.00 0.00 76 1020.5
20260508002003 33 0 0.0 0.0 0.00 0.00 0.00 76 1020.5
20260508001003 33 0 0.0 0.0 0.00 0.00 0.00 76 1020.5
20260508000003 33 0 0.0 0.0 0.00 0.00 0.00 76 1020.2
20260507235003 33 0 0.0 0.0 0.00 0.00 0.00 75 1020.3
20260507234003 33 0 0.0 0.0 0.00 0.00 0.00 75 1020.0
20260507233003 34 0 0.0 0.0 0.00 0.00 0.00 74 1020.0
20260507232003 35 0 0.0 0.0 0.00 0.00 0.00 74 1020.1
20260507231003 35 0 0.0 0.0 0.00 0.00 0.00 74 1020.3
20260507230003 35 0 0.0 0.0 0.00 0.00 0.00 72 1020.0
20260507225003 36 0 0.0 0.0 0.00 0.00 0.00 71 1019.7
20260507224003 37 0 0.0 0.0 0.00 0.00 0.00 68 1019.8
20260507223003 37 0 0.0 0.0 0.00 0.00 0.00 67 1019.7
20260507222003 38 0 0.0 0.0 0.00 0.00 0.00 65 1019.7
20260507221003 39 0 0.0 0.0 0.00 0.00 0.00 64 1019.7
20260507220021 38 0 0.0 0.0 0.00 0.00 0.00 63 1019.7
20260507215003 38 0 0.0 0.0 0.00 0.00 0.00 64 1019.5
20260507214003 39 0 0.0 0.0 0.00 0.00 0.00 62 1019.3
20260507213003 40 0 0.0 0.0 0.00 0.00 0.00 58 1019.6
20260507212003 41 0 0.0 0.0 0.00 0.00 0.00 58 1019.3
20260507210003 42 0 0.0 2.0 0.00 0.00 0.00 55 1019.1
20260507205003 42 360 1.0 2.0 0.00 0.00 0.00 55 1019.0
20260507204003 43 0 0.0 0.0 0.00 0.00 0.00 51 1019.0
20260507203003 43 0 0.0 0.0 0.00 0.00 0.00 53 1018.8
20260507202003 43 0 0.0 0.0 0.00 0.00 0.00 52 1018.9
20260507201003 44 0 0.0 2.0 0.00 0.00 0.00 49 1018.7
20260507200003 45 0 0.0 2.0 0.00 0.00 0.00 46 1018.6
20260507195003 46 0 0.0 0.0 0.00 0.00 0.00 43 1018.8
20260507194003 46 0 0.0 2.0 0.00 0.00 0.00 44 1018.6
20260507193003 47 0 0.0 0.0 0.00 0.00 0.00 40 1018.5
20260507192003 49 0 0.0 0.0 0.00 0.00 0.00 37 1018.2
20260507191003 50 0 0.0 2.0 0.00 0.00 0.00 35 1018.0
20260507190004 52 247 1.0 2.0 0.00 0.00 0.00 35 1017.8
20260507185003 53 239 1.0 4.0 0.00 0.00 0.00 34 1018.0
20260507184003 54 0 0.0 2.0 0.00 0.00 0.00 32 1017.9
20260507183003 55 0 0.0 2.0 0.00 0.00 0.00 33 1017.8
20260507182003 55 246 1.0 4.0 0.00 0.00 0.00 30 1017.7
20260507181003 56 251 1.0 2.0 0.00 0.00 0.00 29 1017.4
20260507180003 56 237 1.0 4.0 0.00 0.00 0.00 29 1017.4
20260507175003 56 258 2.0 4.0 0.00 0.00 0.00 26 1017.1
20260507174003 57 276 1.0 4.0 0.00 0.00 0.00 25 1017.3
20260507173004 58 0 0.0 4.0 0.00 0.00 0.00 27 1017.3
20260507172003 57 238 2.0 4.0 0.00 0.00 0.00 27 1017.1
20260507171003 57 251 2.0 4.0 0.00 0.00 0.00 26 1017.1
20260507170004 57 0 0.0 4.0 0.00 0.00 0.00 26 1017.2
20260507165003 59 38 2.0 4.0 0.00 0.00 0.00 27 1017.1
20260507164003 59 279 1.0 6.0 0.00 0.00 0.00 25 1017.0
20260507163003 58 317 2.0 4.0 0.00 0.00 0.00 26 1017.0
20260507162003 58 11 2.0 4.0 0.00 0.00 0.00 27 1017.1
20260507161003 58 62 2.0 6.0 0.00 0.00 0.00 27 1017.2
20260507160003 59 308 2.0 4.0 0.00 0.00 0.00 27 1017.0
20260507155003 59 324 1.0 4.0 0.00 0.00 0.00 27 1016.9
20260507154003 59 307 2.0 6.0 0.00 0.00 0.00 26 1016.8
20260507153003 58 254 3.0 6.0 0.00 0.00 0.00 27 1016.9
20260507152003 58 2 2.0 6.0 0.00 0.00 0.00 27 1016.8
20260507151003 58 336 2.0 6.0 0.00 0.00 0.00 27 1016.9
20260507150003 58 17 1.0 6.0 0.00 0.00 0.00 29 1016.8
20260507145003 58 342 2.0 6.0 0.00 0.00 0.00 28 1016.9
20260507144003 58 353 2.0 8.0 0.00 0.00 0.00 29 1016.7
20260507143003 58 16 2.0 9.0 0.00 0.00 0.00 29 1016.9
20260507142003 58 346 4.0 7.0 0.00 0.00 0.00 29 1016.9
20260507141003 57 81 1.0 7.0 0.00 0.00 0.00 30 1016.7
20260507140003 58 311 2.0 4.0 0.00 0.00 0.00 30 1016.8
20260507135003 57 14 2.0 7.0 0.00 0.00 0.00 30 1016.7
20260507134003 58 340 2.0 6.0 0.00 0.00 0.00 32 1016.7
20260507133003 57 276 2.0 11.0 0.00 0.00 0.00 33 1017.0
20260507132003 57 316 4.0 11.0 0.00 0.00 0.00 30 1016.8
20260507131003 57 243 4.0 9.0 0.00 0.00 0.00 31 1016.9
20260507130004 57 101 2.0 4.0 0.00 0.00 0.00 33 1016.9
20260507125003 56 64 1.0 4.0 0.00 0.00 0.00 33 1017.0
20260507124003 55 184 2.0 4.0 0.00 0.00 0.00 33 1017.0
20260507123003 57 242 1.0 4.0 0.00 0.00 0.00 36 1016.9
20260507122004 57 0 0.0 4.0 0.00 0.00 0.00 34 1016.8
20260507121003 56 0 0.0 4.0 0.00 0.00 0.00 34 1016.9
20260507120004 56 205 2.0 7.0 0.00 0.00 0.00 34 1016.8
20260507115003 54 240 3.0 8.0 0.00 0.00 0.00 33 1017.0
20260507114003 54 239 3.0 7.0 0.00 0.00 0.00 34 1016.9
20260507113004 55 251 2.0 4.0 0.00 0.00 0.00 33 1016.7
20260507112003 55 355 2.0 4.0 0.00 0.00 0.00 34 1016.9
20260507111003 53 151 4.0 7.0 0.00 0.00 0.00 36 1017.0
20260507110004 55 0 0.0 4.0 0.00 0.00 0.00 39 1016.7
20260507105003 53 259 2.0 6.0 0.00 0.00 0.00 37 1017.0
20260507104003 53 260 3.0 7.0 0.00 0.00 0.00 36 1016.9
20260507103003 54 252 2.0 7.0 0.00 0.00 0.00 35 1016.8
20260507102003 54 261 1.0 6.0 0.00 0.00 0.00 37 1016.6
20260507101003 53 210 1.0 4.0 0.00 0.00 0.00 37 1016.6
20260507100003 52 168 2.0 4.0 0.00 0.00 0.00 37 1016.5
20260507095003 53 224 2.0 4.0 0.00 0.00 0.00 37 1016.5
20260507094003 52 171 1.0 4.0 0.00 0.00 0.00 38 1016.6
20260507093003 52 167 1.0 4.0 0.00 0.00 0.00 37 1016.9
20260507092003 50 40 1.0 4.0 0.00 0.00 0.00 39 1016.5
20260507091003 50 58 2.0 4.0 0.00 0.00 0.00 40 1016.8
20260507090004 50 61 2.0 4.0 0.00 0.00 0.00 41 1017.0
20260507085003 50 157 2.0 6.0 0.00 0.00 0.00 40 1016.8
20260507084003 51 243 2.0 6.0 0.00 0.00 0.00 44 1016.8
20260507083004 50 232 2.0 4.0 0.00 0.00 0.00 43 1016.4
20260507082003 50 293 2.0 4.0 0.00 0.00 0.00 42 1016.7
20260507081003 49 231 2.0 6.0 0.00 0.00 0.00 46 1016.6
20260507080004 48 215 2.0 6.0 0.00 0.00 0.00 46 1016.5
20260507075003 48 210 2.0 7.0 0.00 0.00 0.00 46 1016.4
20260507074003 48 207 2.0 6.0 0.00 0.00 0.00 47 1016.7
20260507073003 47 202 2.0 4.0 0.00 0.00 0.00 48 1016.5
20260507072003 48 204 2.0 4.0 0.00 0.00 0.00 48 1016.3
20260507071003 46 203 1.0 4.0 0.00 0.00 0.00 49 1016.2
20260507070005 46 184 1.0 2.0 0.00 0.00 0.00 51 1016.2